STARLINK-37280, 68511

Orbit data source: Space-Track

STARLINK-37280, 68511 is a payload satellite owned by SpaceX/Seattle (US) in LEO that was launched on Mon, 30 Mar 2026 UTC via an FALCON 9 launch vehicle from the Air Force Eastern Test Range (AFETR). Payload-class satellites include a variety of spacecraft equipped with specific instruments for various scientific and technological missions. These include communications satellites like Starlink; space stations such as the ISS; scientific satellites like the Hubble; Earth observation satellites from companies like Planet Labs, Umbra, and HawkEye 360; GPS; miniature CubeSats for education and research; and military/defense satellites.

Loading next visibility...
Identifier
68511, 2026-068D
Orbit
LEO
Country
Flag of USUS
Related business
Manufacturer
SpaceX/Seattle
Mission
Operational spacecraft
Bus & Motor
STARLINK V2MO, Unknown motor
Mass
575 kg wet, ~530 kg dry
Launch date (UTC)
2026-03-30 (3 months ago)
Launch vehicle
FALCON 9
Launch site
Air Force Eastern Test Range (AFETR)
Object type
Payload
Rocket body
Debris
Shape & HBR
Unknown shape, 1.9 m
Radar Cross Section
Large (>1 m²)

Expand to show TLE details & history
Last TLE update: 1 day ago

TLE from 1 day ago
0 STARLINK-37280
1 68511U 26068D   26170.83550000  .00014708  00000-0  44548-3 0  9998
2 68511  53.1595   6.9026 0001157 113.0897 247.0228 15.34407777 12695
Epoch: 2026-06-19T20:03Z
TLE epoch observation values (Epoch: 2026-06-19T20:03:07.200Z)
Latitude
0.00003°
Longitude
158.06385°
Altitude
463.89 km
Speed
7.636 km/s
True Right ascension
00h 27m 36s
True Declination
0° 00' 00"
Sunlit
Object was in daylight at epoch
Visualization orbit readout
Latitude
Unknown
Longitude
Unknown
Altitude
Unknown
Speed
Unknown
Apparent Right ascension
Unknown
Apparent Declination
Unknown
Sunlit
N/A
Visualization observer readout
Local Sidereal Time
08:42:10
Azimuth
Unknown
Elevation
Unknown
Doppler factor
Unknown
Orbital elements
Apogee altitude
463.729 km
Perigee altitude
462.146 km
Semi-major axis
6,841.074 km
Eccentricity
0.00012
Inclination
53.1595°
RAAN
6.9026°
Arg. of periapsis
113.0897°
True anomaly
247.01059°
Mean anomaly
247.0228°
Eccentric anomaly
247.0167°
Mean motion
3.83581 °/min
Orbital period
93.85 mins
BSTAR
0.00044548
Loading maneuver chart data...
Computing Atmospheric mass density...
Loading historical data...
Loading historical data...
Loading historical data...
Loading historical data...
Loading historical data...
Loading historical data...
Loading historical data...

Documentation

Showing up to 5 results
|